User: anonymous   Login
Location: Crocus Hill
(18.2167°N, 63.0667°W)
Time: 21:12:58
(UTC+00:00)
Language:

Cosmos 1328 - Orbit

View from above orbital plane
View from above orbital plane
View from above satellite
View from above satellite

Ground track
Ground track

The orbit data is extracted from the following two-line orbital elements,

1 12987U 81117A   20088.16930760 +.00000247 +00000-0 +14104-4 0  9992
2 12987 082.5210 332.5939 0006241 008.2637 351.8693 15.08064828085167
Epoch (UTC): 28 March 2020 04:03:48
Eccentricity: 0.0006241
inclination: 82.5210°
perigee height: 538 km
apogee height: 546 km
right ascension of ascending node: 332.5939°
argument of perigee: 8.2637°
revolutions per day: 15.08064828
mean anomaly at epoch: 351.8693°
orbit number at epoch: 8516

The dashed part of the orbit path shows where the satellite is in the earth's shadow,  

DLR